STARLINK-11257 [DTC]

Last updated on Tue Oct 08 2024 00:02:04 GMT+0000 (Coordinated Universal Time)

1 61201U 24171B 24281.51505165 .00044331 00000+0 27200-3 0 9998 2 61201 53.1586 212.1465 0001191 121.0360 239.0777 15.76848403 3909
UTC large
Height (km)
Speed (km/s)
/
Latitude / Longitude
Inclination (degrees)
Orbital Period (minutes)
Azimuth
Elevation
Range (km)
Doppler Factor

Next 0 passes for location: London (51.5072 / 0.1276)

Sorry there are no passes over London.